Change the Weather History Date:

Saturday, October 5, 2013

  Actual Average (KP67) Record (KP67)
Temperature  
Mean Temperature 48 °F -  
Max Temperature 51 °F 67 °F 77 °F (1997)
Min Temperature 44 °F 40 °F 48 °F (1997)
Degree Days  
Heating Degree Days 18    
Moisture  
Dew Point 47 °F    
Average Humidity 100    
Maximum Humidity 100    
Minimum Humidity 100    
Precipitation  
Precipitation 0.57 in - - ()
Sea Level Pressure  
Sea Level Pressure 29.79 in    
Wind  
Wind Speed 18 mph (NE)    
Max Wind Speed 24 mph    
Max Gust Speed 36 mph    
Visibility 3 miles    
Events      
Averages and records for this station are not official NWS values.
T = Trace of Precipitation, MM = Missing Value Source: NWS Daily Summary

Daily Weather History Graph

Daily Weather History Graph

Search for Another Location

Airport or City:

Trip Planner

Search our weather history database for the weather conditions in past years. The results will help you decide how hot, cold, wet, or windy it might be!

Date:

Astronomy

Oct. 05, 2013 Rise Set
Actual Time 7:34 AM CDT 7:02 PM CDT
Civil Twilight 7:04 AM CDT 7:32 PM CDT
Nautical Twilight 6:29 AM CDT 8:06 PM CDT
Astronomical Twilight 5:54 AM CDT 8:41 PM CDT
Moon 8:19 AM CDT (10/5) 7:16 PM CDT (10/5)
Length of Visible Light 12h 27m
Length of Day
11h 27m
New Moon, 1% of the Moon is Illuminated
Oct 5
New Moon
Oct 11
First Quarter
Oct 18
Full
Oct 26
Last Quarter
Nov 3
New

Hourly Weather History & Observations

Time (CDT) Temp. Windchill Dew Point Humidity Pressure Visibility Wind Dir Wind Speed Gust Speed Precip Events Conditions
12:15 AM 44.6 °F 36.4 °F 44.6 °F 100% 29.88 in 6.0 mi NNE 20.7 mph 31.1 mph 0.00 in   Overcast
12:35 AM 44.6 °F 36.1 °F 44.6 °F 100% 29.86 in 10.0 mi NNE 21.9 mph 31.1 mph 0.00 in   Overcast
12:55 AM 44.6 °F 35.9 °F 44.6 °F 100% 29.85 in 10.0 mi NNE 23.0 mph 29.9 mph 0.00 in   Overcast
1:15 AM 44.6 °F 35.9 °F 44.6 °F 100% 29.84 in 5.0 mi NNE 23.0 mph 34.5 mph 0.00 in   Overcast
1:35 AM 46.4 °F 38.3 °F 46.4 °F 100% 29.82 in 2.0 mi NE 23.0 mph 34.5 mph 0.00 in   Overcast
1:55 AM 46.4 °F 38.1 °F 46.4 °F 100% 29.81 in 1.8 mi NE 24.2 mph 31.1 mph 0.00 in   Overcast
2:15 AM 46.4 °F 38.5 °F 46.4 °F 100% 29.80 in 1.5 mi NE 21.9 mph 31.1 mph 0.00 in   Overcast
2:35 AM 46.4 °F 38.5 °F 46.4 °F 100% 29.78 in 1.5 mi NE 21.9 mph 35.7 mph 0.00 in   Overcast
2:55 AM 46.4 °F 38.1 °F 46.4 °F 100% 29.77 in 1.5 mi NE 24.2 mph 35.7 mph 0.01 in   Overcast
3:15 AM 46.4 °F 38.1 °F 46.4 °F 100% 29.75 in 1.8 mi NE 24.2 mph 35.7 mph 0.00 in   Overcast
3:35 AM 46.4 °F 38.7 °F 46.4 °F 100% 29.75 in 3.0 mi NE 20.7 mph 32.2 mph 0.00 in   Overcast
3:55 AM 48.2 °F - 48.2 °F 100% 29.76 in 1.5 mi NE 19.6 mph 34.5 mph 0.01 in   Overcast
4:15 AM 48.2 °F - 48.2 °F 100% 29.76 in 1.8 mi NE 19.6 mph 32.2 mph 0.00 in   Overcast
4:35 AM 48.2 °F - 48.2 °F 100% 29.77 in 1.5 mi NE 21.9 mph 28.8 mph 0.00 in   Overcast
4:55 AM 46.4 °F 39.0 °F 46.4 °F 100% 29.76 in 1.2 mi NE 19.6 mph 27.6 mph 0.01 in   Overcast
5:15 AM 46.4 °F 39.0 °F 46.4 °F 100% 29.74 in 2.0 mi NE 19.6 mph 26.5 mph 0.00 in   Overcast
5:35 AM 46.4 °F 39.0 °F 46.4 °F 100% 29.75 in 1.8 mi NE 19.6 mph 26.5 mph 0.01 in   Overcast
5:55 AM 46.4 °F 39.2 °F 46.4 °F 100% 29.73 in 1.8 mi NE 18.4 mph 27.6 mph 0.02 in   Overcast
6:15 AM 48.2 °F - 48.2 °F 100% 29.73 in 1.8 mi NE 18.4 mph 27.6 mph 0.00 in   Overcast
6:35 AM 48.2 °F - 48.2 °F 100% 29.74 in 1.5 mi NE 17.3 mph 25.3 mph 0.00 in   Overcast
6:55 AM 48.2 °F - 48.2 °F 100% 29.74 in 1.8 mi NE 18.4 mph 24.2 mph 0.00 in   Overcast
7:15 AM 48.2 °F - 48.2 °F 100% 29.74 in 1.8 mi NE 20.7 mph 27.6 mph 0.00 in   Overcast
7:35 AM 48.2 °F - 48.2 °F 100% 29.73 in 2.5 mi NE 20.7 mph 28.8 mph 0.00 in   Overcast
7:55 AM 48.2 °F - 48.2 °F 100% 29.74 in 3.0 mi NE 20.7 mph 28.8 mph 0.00 in   Overcast
8:15 AM 48.2 °F - 48.2 °F 100% 29.73 in 4.0 mi NE 18.4 mph 27.6 mph 0.00 in   Overcast
8:35 AM 48.2 °F - 48.2 °F 100% 29.72 in 5.0 mi NE 21.9 mph 29.9 mph 0.00 in   Overcast
8:55 AM 48.2 °F - 48.2 °F 100% 29.73 in 7.0 mi NE 23.0 mph 31.1 mph 0.00 in   Overcast
9:15 AM 48.2 °F - 48.2 °F 100% 29.73 in 7.0 mi NNE 21.9 mph 29.9 mph 0.00 in   Overcast
9:35 AM 48.2 °F - 48.2 °F 100% 29.74 in 2.0 mi NE 19.6 mph 28.8 mph 0.00 in   Overcast
9:55 AM 48.2 °F - 48.2 °F 100% 29.74 in 1.2 mi NE 20.7 mph 32.2 mph 0.00 in   Overcast
10:15 AM 50.0 °F - 50.0 °F 100% 29.74 in 0.8 mi ENE 19.6 mph 28.8 mph 0.01 in   Overcast
10:35 AM 51.8 °F - 51.8 °F 100% 29.75 in 0.8 mi NE 18.4 mph 27.6 mph 0.02 in   Overcast
10:55 AM 48.2 °F - 48.2 °F 100% 29.76 in 1.0 mi ESE 8.1 mph 20.7 mph 0.02 in   Overcast
11:15 AM 46.4 °F 42.4 °F 46.4 °F 100% 29.76 in 0.8 mi South 8.1 mph - 0.02 in   Overcast
11:35 AM 46.4 °F 42.4 °F 46.4 °F 100% 29.77 in 1.5 mi South 8.1 mph - 0.03 in   Overcast
11:55 AM 46.4 °F - 46.4 °F 100% 29.77 in 1.2 mi Calm Calm - 0.03 in   Overcast
12:15 PM 46.4 °F 42.9 °F 46.4 °F 100% 29.77 in 1.2 mi SE 6.9 mph - 0.00 in   Overcast
12:35 PM 46.4 °F 42.4 °F 46.4 °F 100% 29.77 in 1.2 mi ESE 8.1 mph - 0.00 in   Overcast
12:55 PM 46.4 °F 42.9 °F 46.4 °F 100% 29.77 in 1.0 mi East 6.9 mph - 0.01 in   Overcast
1:15 PM 46.4 °F 42.9 °F 46.4 °F 100% 29.78 in 2.0 mi ESE 6.9 mph - 0.00 in   Overcast
1:35 PM 46.4 °F 42.9 °F 46.4 °F 100% 29.79 in 1.8 mi ESE 6.9 mph - 0.00 in   Overcast
1:55 PM 46.4 °F 43.5 °F 46.4 °F 100% 29.78 in 1.2 mi ESE 5.8 mph - 0.01 in   Overcast
2:15 PM 46.4 °F 42.4 °F 46.4 °F 100% 29.78 in 2.5 mi ESE 8.1 mph - 0.00 in   Overcast
2:35 PM 46.4 °F 41.9 °F 46.4 °F 100% 29.79 in 1.8 mi ESE 9.2 mph - 0.01 in   Overcast
2:55 PM 46.4 °F 43.5 °F 46.4 °F 100% 29.79 in 1.8 mi East 5.8 mph - 0.01 in   Overcast
3:15 PM 46.4 °F 45.2 °F 46.4 °F 100% 29.80 in 1.5 mi East 3.5 mph - 0.00 in   Overcast
3:35 PM 46.4 °F 44.3 °F 46.4 °F 100% 29.80 in 3.0 mi ENE 4.6 mph - 0.01 in   Overcast
3:55 PM 48.2 °F - 48.2 °F 100% 29.81 in 3.0 mi NNE 5.8 mph - 0.01 in   Overcast
4:15 PM 48.2 °F - 48.2 °F 100% 29.80 in 2.0 mi NNE 5.8 mph - 0.01 in   Overcast
4:35 PM 48.2 °F - 48.2 °F 100% 29.80 in 4.0 mi North 8.1 mph - 0.01 in   Overcast
4:55 PM 48.2 °F - 48.2 °F 100% 29.81 in 7.0 mi NNE 9.2 mph - 0.01 in   Overcast
5:15 PM 48.2 °F - 48.2 °F 100% 29.80 in 1.2 mi NE 6.9 mph - 0.00 in   Overcast
5:35 PM 48.2 °F - 48.2 °F 100% 29.81 in 1.2 mi NNE 9.2 mph - 0.00 in   Overcast
5:55 PM 48.2 °F - 48.2 °F 100% 29.81 in 2.5 mi NNE 12.7 mph - 0.00 in   Overcast
6:15 PM 48.2 °F - 48.2 °F 100% 29.81 in 1.0 mi NNE 15.0 mph 19.6 mph 0.00 in   Overcast
6:35 PM 46.4 °F 39.5 °F 46.4 °F 100% 29.82 in 0.8 mi NNE 17.3 mph - 0.00 in   Overcast
6:55 PM 46.4 °F 40.1 °F 46.4 °F 100% 29.82 in 0.5 mi North 15.0 mph 19.6 mph 0.01 in   Overcast
7:15 PM 46.4 °F 40.7 °F 46.4 °F 100% 29.82 in 1.5 mi NNE 12.7 mph - 0.00 in   Overcast
7:35 PM 46.4 °F 41.5 °F 46.4 °F 100% 29.81 in 1.2 mi North 10.4 mph 18.4 mph 0.00 in   Overcast
7:55 PM 46.4 °F 40.7 °F 46.4 °F 100% 29.82 in 1.2 mi North 12.7 mph 17.3 mph 0.01 in   Overcast
8:15 PM 46.4 °F 40.7 °F 46.4 °F 100% 29.83 in 1.0 mi NNE 12.7 mph - 0.00 in   Overcast
8:35 PM 46.4 °F 40.7 °F 46.4 °F 100% 29.83 in 1.5 mi NNE 12.7 mph 18.4 mph 0.02 in   Overcast
8:55 PM 46.4 °F 40.1 °F 46.4 °F 100% 29.83 in 3.0 mi North 15.0 mph - 0.04 in   Overcast
9:15 PM 46.4 °F 39.8 °F 46.4 °F 100% 29.84 in 3.0 mi North 16.1 mph 25.3 mph 0.01 in   Overcast
9:35 PM 46.4 °F 39.2 °F 46.4 °F 100% 29.85 in 3.0 mi North 18.4 mph 25.3 mph 0.04 in   Overcast
9:55 PM 46.4 °F 39.5 °F 46.4 °F 100% 29.86 in 2.5 mi North 17.3 mph 28.8 mph 0.15 in   Overcast
10:15 PM 46.4 °F 39.0 °F 46.4 °F 100% 29.87 in 2.5 mi North 19.6 mph 25.3 mph 0.06 in   Overcast
10:35 PM 46.4 °F 39.8 °F 46.4 °F 100% 29.87 in 3.0 mi North 16.1 mph 24.2 mph 0.12 in   Overcast
10:55 PM 46.4 °F 39.8 °F 46.4 °F 100% 29.87 in 3.0 mi North 16.1 mph 24.2 mph 0.18 in   Overcast
11:15 PM 46.4 °F 40.7 °F 46.4 °F 100% 29.86 in 4.0 mi North 12.7 mph 20.7 mph 0.03 in   Overcast
11:35 PM 46.4 °F 40.4 °F 46.4 °F 100% 29.86 in 7.0 mi North 13.8 mph 21.9 mph 0.03 in   Overcast
11:55 PM 46.4 °F 40.4 °F 46.4 °F 100% 29.85 in 8.0 mi North 13.8 mph 18.4 mph 0.03 in   Overcast